Weather reports worldwide

Advertisment
Ciudad Victoria, Mexico (76491): temperature & dewpoint: 11.08.2018 15:00:00 - 17.08.2018 15:00:00 (CDT)Ciudad Victoria, Mexico (76491): wind speed: 11.08.2018 15:00:00 - 17.08.2018 15:00:00 (CDT)Ciudad Victoria, Mexico (76491): wind direction: 11.08.2018 15:00:00 - 17.08.2018 15:00:00 (CDT)Ciudad Victoria, Mexico (76491): reduced air pressure: 11.08.2018 15:00:00 - 17.08.2018 15:00:00 (CDT)Ciudad Victoria, Mexico (76491): visibility: 11.08.2018 15:00:00 - 17.08.2018 15:00:00 (CDT)
Date & Time tt [°C] td [°C] ff [km/h] ff [kn] dd ppp [hPa] vv [km]
17.08.2018 15:00:00 - - - - - - -
17.08.2018 14:00:00 - - - - - - -
17.08.2018 13:00:00 36,6 23,8 18 10 E 1017,4 10
17.08.2018 12:00:00 - - - - - - -
17.08.2018 11:00:00 - - - - - - -
17.08.2018 10:00:00 29,0 25,1 0 0 N 1018,3 10
17.08.2018 09:00:00 - - - - - - -
17.08.2018 08:00:00 - - - - - - -
17.08.2018 07:00:00 - - - - - - -
17.08.2018 06:00:00 - - - - - - -
17.08.2018 05:00:00 - - - - - - -
17.08.2018 04:00:00 - - - - - - -
17.08.2018 03:00:00 - - - - - - -
17.08.2018 02:00:00 - - - - - - -
17.08.2018 01:00:00 - - - - - - -
17.08.2018 00:00:00 - - - - - - -
16.08.2018 23:00:00 - - - - - - -
16.08.2018 22:00:00 - - - - - - -
16.08.2018 21:00:00 - - - - - - -
16.08.2018 20:00:00 - - - - - - -
16.08.2018 19:00:00 35,2 21,8 22 12 E 1013,4 10
16.08.2018 18:00:00 - - - - - - -
16.08.2018 17:00:00 - - - - - - -
16.08.2018 16:00:00 37,0 23,6 25 14 E 1014,3 10
16.08.2018 15:00:00 - - - - - - -
16.08.2018 14:00:00 - - - - - - -
16.08.2018 13:00:00 35,4 22,7 29 16 E 1015,8 10
16.08.2018 12:00:00 - - - - - - -
16.08.2018 11:00:00 - - - - - - -
16.08.2018 10:00:00 30,2 16,7 0 0 N 1016,7 10
16.08.2018 09:00:00 - - - - - - -
16.08.2018 08:00:00 - - - - - - -
16.08.2018 07:00:00 25,0 23,2 4 2 N 1015,2 6
16.08.2018 06:00:00 - - - - - - -
16.08.2018 05:00:00 - - - - - - -
16.08.2018 04:00:00 28,2 24,0 11 6 E 1014,8 6
16.08.2018 03:00:00 - - - - - - -
16.08.2018 02:00:00 - - - - - - -
16.08.2018 01:00:00 29,2 24,1 7 4 ESE 1014,9 6
16.08.2018 00:00:00 - - - - - - -
15.08.2018 23:00:00 - - - - - - -
15.08.2018 22:00:00 30,1 23,6 14 8 E 1012,8 6
15.08.2018 21:00:00 - - - - - - -
15.08.2018 20:00:00 - - - - - - -
15.08.2018 19:00:00 35,8 23,8 14 8 ESE 1010,9 10
15.08.2018 18:00:00 - - - - - - -
15.08.2018 17:00:00 - - - - - - -
15.08.2018 16:00:00 38,0 23,6 25 14 E 1011,6 10
15.08.2018 15:00:00 - - - - - - -
15.08.2018 14:00:00 - - - - - - -
15.08.2018 13:00:00 36,4 22,3 29 16 E 1013,7 10
15.08.2018 12:00:00 - - - - - - -
15.08.2018 11:00:00 - - - - - - -
15.08.2018 10:00:00 28,8 24,5 0 0 N 1015,7 10
15.08.2018 09:00:00 - - - - - - -
15.08.2018 08:00:00 - - - - - - -
15.08.2018 07:00:00 - - - - - - -
15.08.2018 06:00:00 - - - - - - -
15.08.2018 05:00:00 - - - - - - -
15.08.2018 04:00:00 - - - - - - -
15.08.2018 03:00:00 - - - - - - -
15.08.2018 02:00:00 - - - - - - -
15.08.2018 01:00:00 - - - - - - -
15.08.2018 00:00:00 - - - - - - -
14.08.2018 23:00:00 - - - - - - -
14.08.2018 22:00:00 - - - - - - -
14.08.2018 21:00:00 - - - - - - -
14.08.2018 20:00:00 - - - - - - -
14.08.2018 19:00:00 35,0 22,0 18 10 ESE 1010,7 10
14.08.2018 18:00:00 - - - - - - -
14.08.2018 17:00:00 - - - - - - -
14.08.2018 16:00:00 37,8 22,9 25 14 ESE 1011,5 10
14.08.2018 15:00:00 - - - - - - -
14.08.2018 14:00:00 - - - - - - -
14.08.2018 13:00:00 36,4 21,6 22 12 E 1013,5 10
14.08.2018 12:00:00 - - - - - - -
14.08.2018 11:00:00 - - - - - - -
14.08.2018 10:00:00 30,6 21,4 7 4 E 1014,6 10
14.08.2018 09:00:00 - - - - - - -
14.08.2018 08:00:00 - - - - - - -
14.08.2018 07:00:00 23,4 21,7 4 2 WSW 1014,2 6
14.08.2018 06:00:00 - - - - - - -
14.08.2018 05:00:00 - - - - - - -
14.08.2018 04:00:00 26,2 22,9 7 4 E 1014,3 6
14.08.2018 03:00:00 - - - - - - -
14.08.2018 02:00:00 - - - - - - -
14.08.2018 01:00:00 27,6 24,2 7 4 ESE 1015,3 6
14.08.2018 00:00:00 - - - - - - -
13.08.2018 23:00:00 - - - - - - -
13.08.2018 22:00:00 30,0 22,9 14 8 E 1013,2 6
13.08.2018 21:00:00 - - - - - - -
13.08.2018 20:00:00 - - - - - - -
13.08.2018 19:00:00 35,0 19,0 22 12 ESE 1011,5 10
13.08.2018 18:00:00 - - - - - - -
13.08.2018 17:00:00 - - - - - - -
13.08.2018 16:00:00 37,0 20,2 29 16 ESE 1013,3 10
13.08.2018 15:00:00 - - - - - - -
13.08.2018 14:00:00 - - - - - - -
13.08.2018 13:00:00 34,6 22,0 25 14 E 1015,7 10
13.08.2018 12:00:00 - - - - - - -
13.08.2018 11:00:00 - - - - - - -
13.08.2018 10:00:00 29,2 24,5 14 8 SE 1016,4 10
13.08.2018 09:00:00 - - - - - - -
13.08.2018 08:00:00 - - - - - - -
13.08.2018 07:00:00 - - - - - - -
13.08.2018 06:00:00 - - - - - - -
13.08.2018 05:00:00 - - - - - - -
13.08.2018 04:00:00 - - - - - - -
13.08.2018 03:00:00 - - - - - - -
13.08.2018 02:00:00 - - - - - - -
13.08.2018 01:00:00 - - - - - - -
13.08.2018 00:00:00 - - - - - - -
12.08.2018 23:00:00 - - - - - - -
12.08.2018 22:00:00 - - - - - - -
12.08.2018 21:00:00 - - - - - - -
12.08.2018 20:00:00 - - - - - - -
12.08.2018 19:00:00 35,2 22,3 22 12 E 1010,5 10
12.08.2018 18:00:00 - - - - - - -
12.08.2018 17:00:00 - - - - - - -
12.08.2018 16:00:00 37,4 23,0 18 10 E 1012,6 10
12.08.2018 15:00:00 - - - - - - -
12.08.2018 14:00:00 - - - - - - -
12.08.2018 13:00:00 35,4 23,0 22 12 E 1015,1 10
12.08.2018 12:00:00 - - - - - - -
12.08.2018 11:00:00 - - - - - - -
12.08.2018 10:00:00 27,8 22,7 4 2 N 1015,7 10
12.08.2018 09:00:00 - - - - - - -
12.08.2018 08:00:00 - - - - - - -
12.08.2018 07:00:00 - - - - - - -
12.08.2018 06:00:00 - - - - - - -
12.08.2018 05:00:00 - - - - - - -
12.08.2018 04:00:00 - - - - - - -
12.08.2018 03:00:00 - - - - - - -
12.08.2018 02:00:00 - - - - - - -
12.08.2018 01:00:00 28,6 24,0 4 2 ESE 1015,1 6
12.08.2018 00:00:00 - - - - - - -
11.08.2018 23:00:00 - - - - - - -
11.08.2018 22:00:00 29,8 25,1 14 8 E 1013,3 6
11.08.2018 21:00:00 - - - - - - -
11.08.2018 20:00:00 - - - - - - -
11.08.2018 19:00:00 31,6 24,5 7 4 ESE 1011,6 10
11.08.2018 18:00:00 - - - - - - -
11.08.2018 17:00:00 - - - - - - -
11.08.2018 16:00:00 38,0 21,6 7 4 ENE 1011,9 10
11.08.2018 15:00:00 - - - - - - -

tt = temperature
td = dewpoint
ff = wind speed
dd = wind direction
ppp = reduced air pressure
vv = visibility

Next stations